Time,TemperatureF,DewpointF,PressureIn,WindDirection,WindDirectionDegrees,WindSpeedMPH,WindSpeedGustMPH,Humidity,HourlyPrecipIn,Conditions,Clouds,dailyrainin,SoftwareType,DateUTC
2013-03-26 00:09:00,45.8,8.0,30.34,North,5,4.0,4.0,21,0.00,,,0.00,Wunderground v.1.15,2013-03-26 06:09:00,
2013-03-26 00:19:00,45.1,7.4,30.34,North,5,2.0,5.0,21,0.00,,,0.00,Wunderground v.1.15,2013-03-26 06:19:00,
2013-03-26 00:29:00,44.5,6.9,30.34,North,5,2.0,2.0,21,0.00,,,0.00,Wunderground v.1.15,2013-03-26 06:29:00,
2013-03-26 00:38:00,43.8,7.4,30.34,North,5,3.0,10.0,22,0.00,,,0.00,Wunderground v.1.15,2013-03-26 06:38:00,
2013-03-26 00:45:00,43.4,7.0,30.34,North,5,4.0,10.0,22,0.00,,,0.00,Wunderground v.1.15,2013-03-26 06:45:00,
2013-03-26 00:55:00,42.8,6.5,30.34,North,5,2.0,10.0,22,0.00,,,0.00,Wunderground v.1.15,2013-03-26 06:55:00,
2013-03-26 01:05:00,42.2,7.0,30.34,North,360,3.0,10.0,23,0.00,,,0.00,Wunderground v.1.15,2013-03-26 07:05:00,
2013-03-26 01:14:00,41.7,7.5,30.34,North,355,4.0,10.0,24,0.00,,,0.00,Wunderground v.1.15,2013-03-26 07:14:00,
2013-03-26 01:20:00,41.6,7.4,30.34,North,355,5.0,10.0,24,0.00,,,0.00,Wunderground v.1.15,2013-03-26 07:20:00,
2013-03-26 01:30:00,41.3,7.2,30.34,North,360,4.0,5.0,24,0.00,,,0.00,Wunderground v.1.15,2013-03-26 07:30:00,
2013-03-26 01:39:00,40.9,7.7,30.34,North,355,4.0,4.0,25,0.00,,,0.00,Wunderground v.1.15,2013-03-26 07:39:00,
2013-03-26 01:49:00,40.4,7.3,30.34,North,355,4.0,7.0,25,0.00,,,0.00,Wunderground v.1.15,2013-03-26 07:49:00,
2013-03-26 01:59:00,40.1,7.0,30.34,North,355,4.0,4.0,25,0.00,,,0.00,Wunderground v.1.15,2013-03-26 07:59:00,
2013-03-26 02:04:00,40.0,7.8,30.34,North,349,4.0,6.0,26,0.00,,,0.00,Wunderground v.1.15,2013-03-26 08:04:00,
2013-03-26 02:14:00,39.7,7.6,30.34,North,349,3.0,7.0,26,0.00,,,0.00,Wunderground v.1.15,2013-03-26 08:14:00,
2013-03-26 02:24:00,39.5,7.4,30.34,North,349,1.0,2.0,26,0.00,,,0.00,Wunderground v.1.15,2013-03-26 08:24:00,
2013-03-26 02:29:00,39.4,7.3,30.33,North,349,2.0,3.0,26,0.00,,,0.00,Wunderground v.1.15,2013-03-26 08:29:00,
2013-03-26 02:34:00,39.3,8.0,30.34,North,349,2.0,8.0,27,0.00,,,0.00,Wunderground v.1.15,2013-03-26 08:34:00,
2013-03-26 02:44:00,39.2,8.0,30.34,North,349,2.0,8.0,27,0.00,,,0.00,Wunderground v.1.15,2013-03-26 08:44:00,
2013-03-26 02:49:00,39.1,7.9,30.34,NNW,347,3.0,8.0,27,0.00,,,0.00,Wunderground v.1.15,2013-03-26 08:49:00,
2013-03-26 02:59:00,38.8,7.6,30.34,North,350,3.0,3.0,27,0.00,,,0.00,Wunderground v.1.15,2013-03-26 08:59:00,
2013-03-26 03:09:00,38.6,7.4,30.34,North,349,3.0,3.0,27,0.00,,,0.00,Wunderground v.1.15,2013-03-26 09:09:00,
2013-03-26 03:19:00,38.4,8.1,30.34,North,349,4.0,4.0,28,0.00,,,0.00,Wunderground v.1.15,2013-03-26 09:19:00,
2013-03-26 03:29:00,38.1,7.8,30.33,North,349,4.0,4.0,28,0.00,,,0.00,Wunderground v.1.15,2013-03-26 09:29:00,
2013-03-26 03:39:00,37.8,7.6,30.34,NNW,348,3.0,3.0,28,0.00,,,0.00,Wunderground v.1.15,2013-03-26 09:39:00,
2013-03-26 03:44:00,37.6,7.4,30.34,NNW,348,3.0,8.0,28,0.00,,,0.00,Wunderground v.1.15,2013-03-26 09:44:00,
2013-03-26 03:54:00,37.4,7.2,30.34,NNW,342,4.0,8.0,28,0.00,,,0.00,Wunderground v.1.15,2013-03-26 09:54:00,
2013-03-26 04:04:00,36.9,7.5,30.33,NNW,342,3.0,8.0,29,0.00,,,0.00,Wunderground v.1.15,2013-03-26 10:04:00,
2013-03-26 04:14:00,36.7,7.4,30.33,NNW,343,4.0,8.0,29,0.00,,,0.00,Wunderground v.1.15,2013-03-26 10:14:00,
2013-03-26 04:24:00,36.5,7.2,30.33,NNW,343,2.0,4.0,29,0.00,,,0.00,Wunderground v.1.15,2013-03-26 10:24:00,
2013-03-26 04:34:00,36.2,6.9,30.33,NNW,344,4.0,5.0,29,0.00,,,0.00,Wunderground v.1.15,2013-03-26 10:34:00,
2013-03-26 04:40:00,36.1,6.9,30.32,NNW,344,4.0,5.0,29,0.00,,,0.00,Wunderground v.1.15,2013-03-26 10:40:00,
2013-03-26 04:50:00,35.7,6.5,30.32,NNW,343,4.0,8.0,29,0.00,,,0.00,Wunderground v.1.15,2013-03-26 10:50:00,
2013-03-26 05:00:00,35.4,7.0,30.32,NNW,343,3.0,3.0,30,0.00,,,0.00,Wunderground v.1.15,2013-03-26 11:00:00,
2013-03-26 05:10:00,35.1,6.7,30.32,NNW,343,2.0,8.0,30,0.00,,,0.00,Wunderground v.1.15,2013-03-26 11:10:00,
2013-03-26 05:20:00,34.9,6.6,30.33,NNW,343,3.0,3.0,30,0.00,,,0.00,Wunderground v.1.15,2013-03-26 11:20:00,
2013-03-26 05:29:00,34.8,7.2,30.32,NNW,343,3.0,3.0,31,0.00,,,0.00,Wunderground v.1.15,2013-03-26 11:29:00,
2013-03-26 05:39:00,34.7,7.1,30.33,NNW,343,3.0,3.0,31,0.00,,,0.00,Wunderground v.1.15,2013-03-26 11:39:00,
2013-03-26 05:50:00,34.7,7.1,30.33,NNW,343,3.0,3.0,31,0.00,,,0.00,Wunderground v.1.15,2013-03-26 11:50:00,
2013-03-26 05:59:00,34.5,6.9,30.33,NNW,343,2.0,8.0,31,0.00,,,0.00,Wunderground v.1.15,2013-03-26 11:59:00,
2013-03-26 06:09:00,34.3,6.7,30.34,NNW,343,1.0,8.0,31,0.00,,,0.00,Wunderground v.1.15,2013-03-26 12:09:00,
2013-03-26 06:19:00,34.2,7.4,30.34,NNW,343,2.0,8.0,32,0.00,,,0.00,Wunderground v.1.15,2013-03-26 12:19:00,
2013-03-26 06:29:00,34.1,7.3,30.34,NNW,343,2.0,2.0,32,0.00,,,0.00,Wunderground v.1.15,2013-03-26 12:29:00,
2013-03-26 06:34:00,34.0,7.2,30.34,NNW,343,2.0,6.0,32,0.00,,,0.00,Wunderground v.1.15,2013-03-26 12:34:00,
2013-03-26 06:44:00,33.6,6.8,30.34,NNW,343,1.0,6.0,32,0.00,,,0.00,Wunderground v.1.15,2013-03-26 12:44:00,
2013-03-26 06:54:00,33.5,6.7,30.34,NNW,343,1.0,6.0,32,0.00,,,0.00,Wunderground v.1.15,2013-03-26 12:54:00,
2013-03-26 07:04:00,33.4,7.3,30.35,NNW,343,0.0,6.0,33,0.00,,,0.00,Wunderground v.1.15,2013-03-26 13:04:00,
2013-03-26 07:09:00,33.3,7.2,30.35,NNW,343,0.0,6.0,33,0.00,,,0.00,Wunderground v.1.15,2013-03-26 13:09:00,
2013-03-26 07:19:00,33.1,7.1,30.35,NNW,343,0.0,6.0,33,0.00,,,0.00,Wunderground v.1.15,2013-03-26 13:19:00,
2013-03-26 07:29:00,33.0,7.0,30.35,NNW,343,0.0,0.0,33,0.00,,,0.00,Wunderground v.1.15,2013-03-26 13:29:00,
2013-03-26 07:39:00,33.2,7.2,30.35,NNW,343,1.0,1.0,33,0.00,,,0.00,Wunderground v.1.15,2013-03-26 13:39:00,
2013-03-26 07:44:00,33.4,7.3,30.35,NNW,343,1.0,3.0,33,0.00,,,0.00,Wunderground v.1.15,2013-03-26 13:44:00,
2013-03-26 07:54:00,34.1,7.3,30.35,NNW,343,0.0,3.0,32,0.00,,,0.00,Wunderground v.1.15,2013-03-26 13:54:00,
2013-03-26 08:04:00,34.7,7.1,30.35,NNW,343,1.0,3.0,31,0.00,,,0.00,Wunderground v.1.15,2013-03-26 14:04:00,
2013-03-26 08:14:00,35.2,6.8,30.36,NNW,343,2.0,4.0,30,0.00,,,0.00,Wunderground v.1.15,2013-03-26 14:14:00,
2013-03-26 08:23:00,36.3,7.0,30.36,NNW,344,2.0,3.0,29,0.00,,,0.00,Wunderground v.1.15,2013-03-26 14:23:00,
2013-03-26 08:33:00,36.8,7.5,30.36,NNW,344,2.0,6.0,29,0.00,,,0.00,Wunderground v.1.15,2013-03-26 14:33:00,
2013-03-26 08:40:00,37.1,7.7,30.36,NNW,344,2.0,6.0,29,0.00,,,0.00,Wunderground v.1.15,2013-03-26 14:40:00,
2013-03-26 08:50:00,37.8,7.6,30.36,NNW,344,2.0,6.0,28,0.00,,,0.00,Wunderground v.1.15,2013-03-26 14:50:00,
2013-03-26 09:00:00,38.2,7.1,30.36,NNW,344,2.0,6.0,27,0.00,,,0.00,Wunderground v.1.15,2013-03-26 15:00:00,
2013-03-26 09:05:00,38.2,7.9,30.36,NNW,345,3.0,6.0,28,0.00,,,0.00,Wunderground v.1.15,2013-03-26 15:05:00,
2013-03-26 09:15:00,39.0,7.8,30.36,NNW,347,2.0,6.0,27,0.00,,,0.00,Wunderground v.1.15,2013-03-26 15:15:00,
2013-03-26 09:25:00,39.9,7.7,30.36,NNW,348,3.0,4.0,26,0.00,,,0.00,Wunderground v.1.15,2013-03-26 15:25:00,
2013-03-26 09:34:00,40.7,8.4,30.36,NNW,348,2.0,7.0,26,0.00,,,0.00,Wunderground v.1.15,2013-03-26 15:34:00,
2013-03-26 09:45:00,41.5,8.2,30.35,NNW,348,2.0,7.0,25,0.00,,,0.00,Wunderground v.1.15,2013-03-26 15:45:00,
2013-03-26 09:54:00,42.4,9.0,30.36,NNW,348,1.0,7.0,25,0.00,,,0.00,Wunderground v.1.15,2013-03-26 15:54:00,
2013-03-26 10:04:00,43.4,8.9,30.35,North,355,2.0,7.0,24,0.00,,,0.00,Wunderground v.1.15,2013-03-26 16:04:00,
2013-03-26 10:09:00,43.7,9.2,30.35,North,355,2.0,2.0,24,0.00,,,0.00,Wunderground v.1.15,2013-03-26 16:09:00,
2013-03-26 10:19:00,44.9,9.3,30.35,North,360,2.0,7.0,23,0.00,,,0.00,Wunderground v.1.15,2013-03-26 16:19:00,
2013-03-26 10:29:00,46.3,9.5,30.34,ESE,107,1.0,3.0,22,0.00,,,0.00,Wunderground v.1.15,2013-03-26 16:29:00,
2013-03-26 10:39:00,47.0,9.0,30.34,SSE,150,2.0,6.0,21,0.00,,,0.00,Wunderground v.1.15,2013-03-26 16:39:00,
2013-03-26 10:49:00,47.2,8.1,30.34,SSE,153,4.0,7.0,20,0.00,,,0.00,Wunderground v.1.15,2013-03-26 16:49:00,
2013-03-26 10:59:00,47.6,8.4,30.33,SSE,159,4.0,6.0,20,0.00,,,0.00,Wunderground v.1.15,2013-03-26 16:59:00,
2013-03-26 11:04:00,48.1,8.8,30.33,South,177,5.0,6.0,20,0.00,,,0.00,Wunderground v.1.15,2013-03-26 17:04:00,
2013-03-26 11:14:00,48.4,9.1,30.32,SSE,162,6.0,8.0,20,0.00,,,0.00,Wunderground v.1.15,2013-03-26 17:14:00,
2013-03-26 11:24:00,49.3,9.9,30.32,SSE,148,5.0,6.0,20,0.00,,,0.00,Wunderground v.1.15,2013-03-26 17:24:00,
2013-03-26 11:34:00,50.2,9.5,30.32,SSE,148,5.0,14.0,19,0.00,,,0.00,Wunderground v.1.15,2013-03-26 17:34:00,
2013-03-26 11:39:00,50.3,9.5,30.31,South,189,7.0,14.0,19,0.00,,,0.00,Wunderground v.1.15,2013-03-26 17:39:00,
2013-03-26 11:49:00,50.9,10.0,30.31,SSW,207,4.0,14.0,19,0.00,,,0.00,Wunderground v.1.15,2013-03-26 17:49:00,
2013-03-26 11:59:00,51.5,9.3,30.30,South,188,7.0,14.0,18,0.00,,,0.00,Wunderground v.1.15,2013-03-26 17:59:00,
2013-03-26 12:09:00,52.3,10.0,30.29,SSW,210,6.0,14.0,18,0.00,,,0.00,Wunderground v.1.15,2013-03-26 18:09:00,
2013-03-26 12:19:00,52.4,10.1,30.28,SSE,167,7.0,7.0,18,0.00,,,0.00,Wunderground v.1.15,2013-03-26 18:19:00,
2013-03-26 12:29:00,53.3,10.8,30.27,SSE,159,5.0,6.0,18,0.00,,,0.00,Wunderground v.1.15,2013-03-26 18:29:00,
2013-03-26 12:40:00,53.9,10.0,30.27,SSE,165,7.0,7.0,17,0.00,,,0.00,Wunderground v.1.15,2013-03-26 18:40:00,
2013-03-26 12:50:00,54.6,10.6,30.26,South,184,6.0,16.0,17,0.00,,,0.00,Wunderground v.1.15,2013-03-26 18:50:00,
2013-03-26 13:00:00,55.1,11.0,30.25,South,172,8.0,8.0,17,0.00,,,0.00,Wunderground v.1.15,2013-03-26 19:00:00,
2013-03-26 13:10:00,56.2,10.5,30.24,SE,136,6.0,6.0,16,0.00,,,0.00,Wunderground v.1.15,2013-03-26 19:10:00,
2013-03-26 13:19:00,56.8,11.0,30.23,SW,215,8.0,16.0,16,0.00,,,0.00,Wunderground v.1.15,2013-03-26 19:19:00,
2013-03-26 13:24:00,57.3,10.0,30.23,SSE,159,8.0,16.0,15,0.00,,,0.00,Wunderground v.1.15,2013-03-26 19:24:00,
2013-03-26 13:30:00,57.9,10.5,30.23,SSW,213,7.0,7.0,15,0.00,,,0.00,Wunderground v.1.15,2013-03-26 19:30:00,
2013-03-26 13:40:00,58.7,11.1,30.22,SSW,208,8.0,16.0,15,0.00,,,0.00,Wunderground v.1.15,2013-03-26 19:40:00,
2013-03-26 13:49:00,58.8,11.2,30.21,SSE,164,7.0,7.0,15,0.00,,,0.00,Wunderground v.1.15,2013-03-26 19:49:00,
2013-03-26 13:59:00,59.6,10.3,30.20,SSW,196,7.0,16.0,14,0.00,,,0.00,Wunderground v.1.15,2013-03-26 19:59:00,
2013-03-26 14:04:00,60.0,12.1,30.19,SSE,161,7.0,16.0,15,0.00,,,0.00,Wunderground v.1.15,2013-03-26 20:04:00,
2013-03-26 14:14:00,60.2,10.7,30.18,SSW,192,9.0,16.0,14,0.00,,,0.00,Wunderground v.1.15,2013-03-26 20:14:00,
2013-03-26 14:24:00,61.3,10.0,30.18,South,188,7.0,8.0,13,0.00,,,0.00,Wunderground v.1.15,2013-03-26 20:24:00,
2013-03-26 14:34:00,61.6,10.2,30.16,SSW,195,8.0,15.0,13,0.00,,,0.00,Wunderground v.1.15,2013-03-26 20:34:00,
2013-03-26 14:39:00,61.5,10.1,30.16,SSE,159,10.0,18.0,13,0.00,,,0.00,Wunderground v.1.15,2013-03-26 20:39:00,
2013-03-26 14:49:00,62.6,11.0,30.15,South,171,9.0,9.0,13,0.00,,,0.00,Wunderground v.1.15,2013-03-26 20:49:00,
2013-03-26 14:59:00,63.0,11.3,30.14,SW,215,8.0,8.0,13,0.00,,,0.00,Wunderground v.1.15,2013-03-26 20:59:00,
2013-03-26 15:09:00,63.3,9.7,30.14,SSW,209,8.0,8.0,12,0.00,,,0.00,Wunderground v.1.15,2013-03-26 21:09:00,
2013-03-26 15:14:00,63.5,9.9,30.13,South,182,9.0,9.0,12,0.00,,,0.00,Wunderground v.1.15,2013-03-26 21:14:00,
2013-03-26 15:24:00,63.5,9.9,30.12,SSE,160,9.0,18.0,12,0.00,,,0.00,Wunderground v.1.15,2013-03-26 21:24:00,
2013-03-26 15:34:00,63.8,10.1,30.12,SSE,163,8.0,14.0,12,0.00,,,0.00,Wunderground v.1.15,2013-03-26 21:34:00,
2013-03-26 15:44:00,64.6,10.8,30.11,South,171,8.0,9.0,12,0.00,,,0.00,Wunderground v.1.15,2013-03-26 21:44:00,
2013-03-26 15:54:00,64.5,10.7,30.10,South,172,8.0,13.0,12,0.00,,,0.00,Wunderground v.1.15,2013-03-26 21:54:00,
2013-03-26 16:04:00,65.4,9.4,30.09,SSE,158,7.0,19.0,11,0.00,,,0.00,Wunderground v.1.15,2013-03-26 22:04:00,
2013-03-26 16:14:00,64.2,10.5,30.08,SSE,168,6.0,19.0,12,0.00,,,0.00,Wunderground v.1.15,2013-03-26 22:14:00,
2013-03-26 16:23:00,64.5,10.7,30.07,SE,143,8.0,19.0,12,0.00,,,0.00,Wunderground v.1.15,2013-03-26 22:23:00,
2013-03-26 16:29:00,64.4,10.6,30.07,South,172,7.0,7.0,12,0.00,,,0.00,Wunderground v.1.15,2013-03-26 22:29:00,
2013-03-26 16:40:00,65.4,9.4,30.07,SSW,198,7.0,15.0,11,0.00,,,0.00,Wunderground v.1.15,2013-03-26 22:40:00,
2013-03-26 16:50:00,65.7,9.7,30.07,SSE,157,9.0,9.0,11,0.00,,,0.00,Wunderground v.1.15,2013-03-26 22:50:00,
2013-03-26 17:00:00,65.4,9.4,30.07,South,178,7.0,15.0,11,0.00,,,0.00,Wunderground v.1.15,2013-03-26 23:00:00,
2013-03-26 17:10:00,66.3,10.1,30.06,South,175,5.0,15.0,11,0.00,,,0.00,Wunderground v.1.15,2013-03-26 23:10:00,
2013-03-26 17:19:00,66.6,10.4,30.05,SSW,199,6.0,15.0,11,0.00,,,0.00,Wunderground v.1.15,2013-03-26 23:19:00,
2013-03-26 17:29:00,66.1,10.0,30.05,South,181,9.0,9.0,11,0.00,,,0.00,Wunderground v.1.15,2013-03-26 23:29:00,
2013-03-26 17:39:00,65.9,9.8,30.05,South,169,8.0,8.0,11,0.00,,,0.00,Wunderground v.1.15,2013-03-26 23:39:00,
2013-03-26 17:45:00,65.8,9.7,30.05,South,177,7.0,16.0,11,0.00,,,0.00,Wunderground v.1.15,2013-03-26 23:45:00,
2013-03-26 17:54:00,65.8,9.7,30.05,South,186,6.0,16.0,11,0.00,,,0.00,Wunderground v.1.15,2013-03-26 23:54:00,
2013-03-26 18:04:00,65.4,11.4,30.04,SSE,157,6.0,16.0,12,0.00,,,0.00,Wunderground v.1.15,2013-03-27 00:04:00,
2013-03-26 18:14:00,65.4,9.4,30.04,South,175,8.0,17.0,11,0.00,,,0.00,Wunderground v.1.15,2013-03-27 00:14:00,
2013-03-26 18:24:00,64.8,10.9,30.04,South,180,9.0,16.0,12,0.00,,,0.00,Wunderground v.1.15,2013-03-27 00:24:00,
2013-03-26 18:34:00,64.3,10.5,30.04,South,174,9.0,20.0,12,0.00,,,0.00,Wunderground v.1.15,2013-03-27 00:34:00,
2013-03-26 18:44:00,64.2,10.5,30.04,South,180,8.0,20.0,12,0.00,,,0.00,Wunderground v.1.15,2013-03-27 00:44:00,
2013-03-26 18:54:00,63.8,11.9,30.04,SSE,166,8.0,9.0,13,0.00,,,0.00,Wunderground v.1.15,2013-03-27 00:54:00,
2013-03-26 19:04:00,63.4,11.6,30.04,SSE,165,8.0,14.0,13,0.00,,,0.00,Wunderground v.1.15,2013-03-27 01:04:00,
2013-03-26 19:14:00,63.0,13.0,30.04,South,173,8.0,20.0,14,0.00,,,0.00,Wunderground v.1.15,2013-03-27 01:14:00,
2013-03-26 19:24:00,62.5,12.6,30.04,SSE,168,7.0,10.0,14,0.00,,,0.00,Wunderground v.1.15,2013-03-27 01:24:00,
2013-03-26 19:34:00,62.0,12.2,30.04,SSW,192,6.0,18.0,14,0.00,,,0.00,Wunderground v.1.15,2013-03-27 01:34:00,
2013-03-26 19:44:00,61.6,11.9,30.04,South,178,8.0,18.0,14,0.00,,,0.00,Wunderground v.1.15,2013-03-27 01:44:00,
2013-03-26 19:54:00,61.2,11.5,30.04,South,176,7.0,18.0,14,0.00,,,0.00,Wunderground v.1.15,2013-03-27 01:54:00,
2013-03-26 20:04:00,60.9,12.9,30.04,SSE,167,7.0,18.0,15,0.00,,,0.00,Wunderground v.1.15,2013-03-27 02:04:00,
2013-03-26 20:14:00,60.8,12.8,30.04,South,190,8.0,18.0,15,0.00,,,0.00,Wunderground v.1.15,2013-03-27 02:14:00,
2013-03-26 20:24:00,60.3,12.4,30.05,South,189,5.0,18.0,15,0.00,,,0.00,Wunderground v.1.15,2013-03-27 02:24:00,
2013-03-26 20:29:00,60.1,12.2,30.05,South,171,5.0,6.0,15,0.00,,,0.00,Wunderground v.1.15,2013-03-27 02:29:00,
2013-03-26 20:35:00,59.9,13.5,30.05,South,188,5.0,15.0,16,0.00,,,0.00,Wunderground v.1.15,2013-03-27 02:35:00,
2013-03-26 20:45:00,59.7,13.4,30.05,SSW,192,7.0,7.0,16,0.00,,,0.00,Wunderground v.1.15,2013-03-27 02:45:00,
2013-03-26 20:55:00,59.5,13.2,30.05,South,189,7.0,10.0,16,0.00,,,0.00,Wunderground v.1.15,2013-03-27 02:55:00,
2013-03-26 21:04:00,59.2,13.0,30.05,SSW,204,6.0,15.0,16,0.00,,,0.00,Wunderground v.1.15,2013-03-27 03:04:00,
2013-03-26 21:10:00,59.1,12.9,30.05,South,186,6.0,6.0,16,0.00,,,0.00,Wunderground v.1.15,2013-03-27 03:10:00,
2013-03-26 21:20:00,58.8,12.6,30.05,South,188,7.0,11.0,16,0.00,,,0.00,Wunderground v.1.15,2013-03-27 03:20:00,
2013-03-26 21:30:00,58.6,12.5,30.06,SSW,196,6.0,6.0,16,0.00,,,0.00,Wunderground v.1.15,2013-03-27 03:30:00,
2013-03-26 21:39:00,58.0,12.0,30.06,SSW,205,5.0,5.0,16,0.00,,,0.00,Wunderground v.1.15,2013-03-27 03:39:00,
2013-03-26 21:50:00,57.8,13.2,30.06,South,180,6.0,6.0,17,0.00,,,0.00,Wunderground v.1.15,2013-03-27 03:50:00,
2013-03-26 22:00:00,57.5,13.0,30.06,South,183,7.0,18.0,17,0.00,,,0.00,Wunderground v.1.15,2013-03-27 04:00:00,
2013-03-26 22:05:00,57.4,12.9,30.07,South,184,7.0,18.0,17,0.00,,,0.00,Wunderground v.1.15,2013-03-27 04:05:00,
2013-03-26 22:10:00,57.1,12.6,30.07,South,177,7.0,18.0,17,0.00,,,0.00,Wunderground v.1.15,2013-03-27 04:10:00,
2013-03-26 22:19:00,56.6,13.5,30.07,South,177,7.0,7.0,18,0.00,,,0.00,Wunderground v.1.15,2013-03-27 04:19:00,
2013-03-26 22:24:00,56.2,13.2,30.07,South,170,6.0,7.0,18,0.00,,,0.00,Wunderground v.1.15,2013-03-27 04:24:00,
2013-03-26 22:35:00,55.6,13.9,30.07,South,181,4.0,17.0,19,0.00,,,0.00,Wunderground v.1.15,2013-03-27 04:35:00,
2013-03-26 22:45:00,55.3,12.4,30.07,South,188,4.0,17.0,18,0.00,,,0.00,Wunderground v.1.15,2013-03-27 04:45:00,
2013-03-26 22:55:00,55.0,12.2,30.07,South,190,4.0,17.0,18,0.00,,,0.00,Wunderground v.1.15,2013-03-27 04:55:00,
2013-03-26 23:05:00,55.0,12.2,30.08,SSW,209,6.0,17.0,18,0.00,,,0.00,Wunderground v.1.15,2013-03-27 05:05:00,
2013-03-26 23:14:00,54.5,11.8,30.08,SSW,208,5.0,17.0,18,0.00,,,0.00,Wunderground v.1.15,2013-03-27 05:14:00,
2013-03-26 23:20:00,54.1,12.7,30.08,SSW,208,4.0,4.0,19,0.00,,,0.00,Wunderground v.1.15,2013-03-27 05:20:00,
2013-03-26 23:25:00,53.8,12.4,30.08,SSW,205,3.0,4.0,19,0.00,,,0.00,Wunderground v.1.15,2013-03-27 05:25:00,
2013-03-26 23:30:00,53.5,12.2,30.09,SSW,205,3.0,3.0,19,0.00,,,0.00,Wunderground v.1.15,2013-03-27 05:30:00,
2013-03-26 23:40:00,52.6,11.4,30.08,SSW,205,0.0,15.0,19,0.00,,,0.00,Wunderground v.1.15,2013-03-27 05:40:00,
2013-03-26 23:50:00,51.7,11.9,30.08,SSW,205,0.0,15.0,20,0.00,,,0.00,Wunderground v.1.15,2013-03-27 05:50:00,